FW4300 Weather Reports


Display with metric or nautical units.
time (UTC)temp
F
wind
direction
speed
MPH
gust
MPH
rain 1hr
in
rain 24hr
in
rain mn
in
humidity
%
barometer
mb
20260504194030 83 133 0.0 0.0 0.03 0.03 0.03 62 1016.0
20260504193528 85 167 0.0 0.0 0.00 0.00 0.00 59 1015.8
20260504193027 85 180 0.0 0.0 0.00 0.00 0.00 60 1015.9
20260504192526 84 158 0.0 0.0 0.00 0.00 0.00 60 1015.8
20260504192028 84 108 0.0 0.0 0.00 0.00 0.00 60 1015.8
20260504191526 84 226 0.0 0.0 0.00 0.00 0.00 60 1015.9
20260504191025 84 212 0.0 0.0 0.00 0.00 0.00 60 1015.9
20260504190525 84 205 0.0 0.0 0.00 0.00 0.00 60 1016.0
20260504190026 84 221 0.0 0.0 0.00 0.00 0.00 59 1016.0
20260504185526 85 115 0.0 0.0 0.00 0.00 0.00 58 1016.0
20260504185023 85 80 0.0 0.0 0.00 0.00 0.00 58 1016.0
20260504184522 85 205 0.0 0.0 0.00 0.00 0.00 58 1016.1
20260504184022 85 188 0.0 0.0 0.00 0.00 0.00 57 1016.1
20260504183522 86 171 0.0 0.0 0.00 0.00 0.00 59 1016.1
20260504183023 86 134 0.0 0.0 0.00 0.00 0.00 58 1016.1
20260504182523 86 201 0.0 0.0 0.00 0.00 0.00 59 1016.1
20260504182025 86 143 0.0 0.0 0.00 0.00 0.00 58 1016.1
20260504181519 86 120 0.0 0.0 0.00 0.00 0.00 57 1016.2
20260504181018 86 182 0.0 0.0 0.00 0.00 0.00 59 1016.2
20260504180516 85 200 0.0 0.0 0.00 0.00 0.00 59 1016.4
20260504180015 86 137 0.0 0.0 0.00 0.00 0.00 57 1016.4
20260504175515 86 141 0.0 0.0 0.00 0.00 0.00 58 1016.7
20260504175018 85 237 0.0 0.0 0.00 0.00 0.00 58 1016.8
20260504174515 85 186 0.0 0.0 0.00 0.00 0.00 58 1016.8
20260504174017 85 179 0.0 0.0 0.00 0.00 0.00 59 1016.9
20260504173514 86 175 0.0 0.0 0.00 0.00 0.00 58 1016.9
20260504173025 86 174 0.0 0.0 0.00 0.00 0.00 56 1016.9
20260504172513 87 85 0.0 0.0 0.00 0.00 0.00 55 1016.8
20260504172013 86 171 0.0 0.0 0.00 0.00 0.00 56 1016.8
20260504171518 86 118 0.0 0.0 0.00 0.00 0.00 56 1016.9
20260504171013 87 158 0.0 0.0 0.00 0.00 0.00 56 1016.9
20260504170513 87 163 0.0 0.0 0.00 0.00 0.00 56 1016.9
20260504151006 85 123 0.0 0.0 0.00 0.00 0.00 58 1017.8
20260504150504 85 119 0.0 0.0 0.00 0.00 0.00 58 1017.8
20260504141058 84 183 0.0 0.0 0.00 0.00 0.00 58 1017.8
20260504140600 83 155 0.0 0.0 0.00 0.00 0.00 58 1017.8
20260504140110 84 124 0.0 0.0 0.00 0.00 0.00 58 1017.9
20260504130555 82 134 0.0 0.0 0.00 0.00 0.00 61 1017.9
20260504110532 77 164 0.0 0.0 0.00 0.00 0.00 67 1017.9
20260504100521 0 0.0 0.0 0.00 0.00 0.00 1017.1
20260504081553 76 143 0.0 0.0 0.00 0.00 0.00 66 1016.4
20260504081049 76 167 0.0 0.0 0.00 0.00 0.00 66 1016.5
20260504080554 76 214 0.0 0.0 0.00 0.00 0.00 66 1016.5
20260504050533 77 197 0.0 0.0 0.00 0.00 0.00 66 1017.5
20260504045531 76 208 0.0 0.0 0.00 0.00 0.00 66 1017.5
20260504045031 76 162 0.0 0.0 0.00 0.00 0.00 66 1017.6
20260504044540 76 180 0.0 0.0 0.00 0.00 0.00 66 1017.6
20260504044033 76 179 0.0 0.0 0.00 0.00 0.00 66 1017.6
20260504043530 76 202 0.0 0.0 0.00 0.00 0.00 66 1017.6
20260504043034 77 158 0.0 0.0 0.00 0.00 0.00 66 1017.7
20260504042529 77 180 0.0 0.0 0.00 0.00 0.00 66 1017.8
20260504042029 77 200 0.0 0.0 0.00 0.00 0.00 66 1017.9
20260504041526 77 186 0.0 0.0 0.00 0.00 0.00 66 1018.0
20260504041026 77 141 0.0 0.0 0.00 0.00 0.00 66 1018.1
20260504040528 77 204 0.0 0.0 0.00 0.00 0.00 66 1018.2
20260504040025 77 108 0.0 0.0 0.00 0.00 0.00 66 1018.2
20260504035525 77 128 0.0 0.0 0.00 0.00 0.00 66 1018.4
20260504035024 77 203 0.0 0.0 0.00 0.00 0.00 66 1018.4
20260504034533 77 221 0.0 0.0 0.00 0.00 0.00 66 1018.4
20260504034024 77 206 0.0 0.0 0.00 0.00 0.00 66 1018.5
20260504033524 77 169 0.0 0.0 0.00 0.00 0.00 66 1018.4
20260504033035 77 212 0.0 0.0 0.00 0.00 0.00 66 1018.4
20260504032524 77 128 0.0 0.0 0.00 0.00 0.00 66 1018.3
20260504032026 77 165 0.0 0.0 0.00 0.00 0.00 66 1018.4
20260504031524 77 133 0.0 0.0 0.00 0.00 0.00 66 1018.3
20260504031023 77 148 0.0 0.0 0.00 0.00 0.00 66 1018.3
20260504030523 77 136 0.0 0.0 0.00 0.00 0.00 66 1018.2
20260504030024 77 111 0.0 0.0 0.00 0.00 0.00 66 1018.2
20260504025523 77 136 0.0 0.0 0.00 0.00 0.00 66 1018.2
20260504025024 77 152 0.0 0.0 0.00 0.00 0.00 66 1018.2
20260504024524 77 171 0.0 0.0 0.00 0.00 0.00 66 1018.2
20260504024023 77 138 0.0 0.0 0.00 0.00 0.00 66 1018.1
20260504023525 77 131 0.0 0.0 0.00 0.00 0.00 66 1018.3
20260504023023 77 124 0.0 0.0 0.00 0.00 0.00 66 1018.1
20260504022523 77 156 0.0 0.0 0.00 0.00 0.00 66 1018.0
20260504022022 77 121 0.0 0.0 0.00 0.00 0.00 66 1018.0
20260504021531 77 119 0.0 0.0 0.00 0.00 0.00 66 1018.0
20260504021021 77 171 0.0 0.0 0.00 0.00 0.00 66 1017.9
20260504020522 77 154 0.0 0.0 0.00 0.00 0.00 66 1017.9
20260504020024 77 166 0.0 0.0 0.00 0.00 0.00 66 1017.9
20260504015521 77 122 0.0 0.0 0.00 0.00 0.00 66 1017.9
20260504015020 77 113 0.0 0.0 0.00 0.00 0.00 66 1017.9
20260504014521 77 174 0.0 0.0 0.00 0.00 0.00 66 1017.9
20260504014020 77 163 0.0 0.0 0.00 0.00 0.00 66 1017.9
20260504013525 78 162 0.0 0.0 0.00 0.00 0.00 66 1018.0
20260504013029 78 135 0.0 0.0 0.00 0.00 0.00 66 1017.9
20260504012521 78 131 0.0 0.0 0.00 0.00 0.00 65 1017.8
20260504012022 78 153 0.0 0.0 0.00 0.00 0.00 65 1017.8
20260504011520 78 127 0.0 0.0 0.00 0.00 0.00 65 1017.8
20260504011020 78 117 0.0 0.0 0.00 0.00 0.00 65 1017.7
20260504010522 78 176 0.0 0.0 0.00 0.00 0.00 65 1017.7
20260504010021 78 139 0.0 0.0 0.00 0.00 0.00 65 1017.6
20260504005519 78 134 0.0 0.0 0.00 0.00 0.00 65 1017.7
20260504005019 78 126 0.0 0.0 0.00 0.00 0.00 65 1017.6
20260504004519 78 182 0.0 0.0 0.00 0.00 0.00 65 1017.5
20260504004019 79 101 0.0 0.0 0.00 0.00 0.00 65 1017.4
20260504003519 79 141 0.0 0.0 0.00 0.00 0.00 65 1017.5
20260504003019 78 150 0.0 0.0 0.00 0.00 0.00 65 1017.4
20260504002519 79 143 0.0 0.0 0.00 0.00 0.00 65 1017.4
20260504002018 79 155 0.0 0.0 0.00 0.00 0.00 65 1017.4
20260504001518 79 134 0.0 0.0 0.00 0.00 0.00 65 1017.3
20260504001018 79 148 0.0 0.0 0.00 0.00 0.00 65 1017.3
20260504000521 79 129 0.0 0.0 0.00 0.00 0.00 65 1017.2
20260504000018 79 129 0.0 0.0 0.00 0.00 0.00 65 1017.2
20260503235516 79 99 0.0 0.0 0.00 0.00 0.00 65 1017.0
20260503235017 79 142 0.0 0.0 0.00 0.00 0.00 65 1017.0
20260503234517 79 126 0.0 0.0 0.00 0.00 0.00 64 1017.0
20260503234020 79 145 0.0 0.0 0.00 0.00 0.00 64 1016.9
20260503233517 79 127 0.0 0.0 0.00 0.00 0.00 64 1016.9
20260503233016 79 132 0.0 0.0 0.00 0.00 0.00 64 1016.9
20260503232519 79 133 0.0 0.0 0.00 0.00 0.00 64 1016.8
20260503232020 79 113 0.0 0.0 0.00 0.00 0.00 64 1016.7
20260503231515 79 84 0.0 0.0 0.00 0.00 0.00 64 1016.7
20260503231016 80 81 0.0 0.0 0.00 0.00 0.00 63 1016.6
20260503230515 80 110 0.0 0.0 0.00 0.00 0.00 63 1016.6
20260503230015 80 169 0.0 0.0 0.00 0.00 0.00 62 1016.6
20260503225514 80 159 0.0 0.0 0.00 0.00 0.00 62 1016.6
20260503225014 81 136 0.0 0.0 0.00 0.00 0.00 62 1016.6
20260503224514 81 134 0.0 0.0 0.00 0.00 0.00 61 1016.5
20260503224023 82 207 0.0 0.0 0.00 0.00 0.00 61 1016.6
20260503223516 82 142 0.0 0.0 0.00 0.00 0.00 60 1016.5
20260503223014 83 198 0.0 0.0 0.00 0.00 0.00 60 1016.6
20260503222513 83 161 0.0 0.0 0.00 0.00 0.00 60 1016.5
20260503222013 83 188 0.0 0.0 0.00 0.00 0.00 60 1016.5
20260503221518 83 155 0.0 0.0 0.00 0.00 0.00 59 1016.5
20260503221012 83 150 0.0 0.0 0.00 0.00 0.00 59 1016.4
20260503220512 83 162 0.0 0.0 0.00 0.00 0.00 58 1016.4
20260503220012 84 103 0.0 0.0 0.00 0.00 0.00 57 1016.4
20260503215513 84 141 0.0 0.0 0.00 0.00 0.00 57 1016.3
20260503215013 84 178 0.0 0.0 0.00 0.00 0.00 57 1016.3
20260503214513 84 151 0.0 0.0 0.00 0.00 0.00 57 1016.3
20260503214017 84 175 0.0 0.0 0.00 0.00 0.00 57 1016.3
20260503213510 84 174 0.0 0.0 0.00 0.00 0.00 57 1016.3
20260503213025 84 224 0.0 0.0 0.00 0.00 0.00 55 1016.3
20260503212510 84 127 0.0 0.0 0.00 0.00 0.00 55 1016.2
20260503212010 84 129 0.0 0.0 0.00 0.00 0.00 54 1016.3
20260503211515 84 210 0.0 0.0 0.00 0.00 0.00 55 1016.1
20260503211011 84 123 0.0 0.0 0.00 0.00 0.00 56 1016.1
20260503210609 84 132 0.0 0.0 0.00 0.00 0.00 57 1016.0
20260503210008 84 71 0.0 0.0 0.00 0.00 0.00 57 1016.0
20260503205507 84 96 0.0 0.0 0.00 0.00 0.00 56 1016.0
20260503205012 84 147 0.0 0.0 0.00 0.00 0.00 57 1016.0
20260503204507 84 125 0.0 0.0 0.00 0.00 0.00 57 1016.0
20260503204008 84 165 0.0 0.0 0.00 0.00 0.00 56 1016.1
20260503203506 85 129 0.0 0.0 0.00 0.00 0.00 56 1016.2
20260503203005 85 138 0.0 0.0 0.00 0.00 0.00 56 1016.1
20260503202505 85 119 0.0 0.0 0.00 0.00 0.00 56 1016.1
20260503202005 85 103 0.0 0.0 0.00 0.00 0.00 55 1016.2
20260503201507 85 125 0.0 0.0 0.00 0.00 0.00 55 1016.2
20260503201002 85 156 0.0 0.0 0.00 0.00 0.00 56 1016.2
20260503200503 85 201 0.0 0.0 0.00 0.00 0.00 56 1016.3
20260503200004 85 118 0.0 0.0 0.00 0.00 0.00 56 1016.4
20260503195501 85 177 0.0 0.0 0.00 0.00 0.00 56 1016.3
20260503195001 85 160 0.0 0.0 0.00 0.00 0.00 55 1016.4
20260503194601 85 88 0.0 0.0 0.00 0.00 0.00 55 1016.5